This is the latest recevied weather packets stored in our database for station/object OE9GTV. If no packets are shown the sender has not sent any weather packets the latest 10 day(s).
| Time | Temp. | Humidity | Pressure | Rain* | Wind** | Luminosity | Snow |
|---|---|---|---|---|---|---|---|
| 1777475472 | 19.44° C | 55% | 1014.9 hPa | 0 mm | - | 0 W/m² | - |
| 1777474872 | 18.89° C | 56% | 1014.9 hPa | 0 mm | - | 0 W/m² | - |
| 1777474273 | 18.89° C | 60% | 1015 hPa | 0 mm | - | 0 W/m² | - |
| 1777473672 | 17.78° C | 62% | 1015 hPa | 0 mm | - | 0 W/m² | - |
| 1777473072 | 18.33° C | 62% | 1015 hPa | 0 mm | - | 0 W/m² | - |
| 1777472472 | 18.33° C | 60% | 1015 hPa | 0 mm | - | 0 W/m² | - |
| 1777471872 | 17.78° C | 60% | 1015.1 hPa | 0 mm | - | 0 W/m² | - |
| 1777471271 | 17.78° C | 59% | 1015.1 hPa | 0 mm | - | 0 W/m² | - |
| 1777470671 | 17.78° C | 59% | 1015.1 hPa | 0 mm | - | 0 W/m² | - |
| 1777470071 | 17.78° C | 61% | 1015.2 hPa | 0 mm | - | 0 W/m² | - |
| 1777469471 | 17.78° C | 62% | 1015.2 hPa | 0 mm | - | 0 W/m² | - |
| 1777468871 | 18.33° C | 61% | 1015.3 hPa | 0 mm | - | 0 W/m² | - |
| 1777468271 | 18.33° C | 59% | 1015.2 hPa | 0 mm | - | 0 W/m² | - |
| 1777467671 | 18.89° C | 59% | 1015.2 hPa | 0 mm | - | 0 W/m² | - |
| 1777467071 | 18.33° C | 62% | 1015.3 hPa | 0 mm | - | 0 W/m² | - |
| 1777466471 | 18.33° C | 65% | 1015.4 hPa | 0 mm | - | 0 W/m² | - |
| 1777465872 | 18.33° C | 65% | 1015.4 hPa | 0 mm | - | 0 W/m² | - |
| 1777465271 | 16.67° C | 66% | 1015.5 hPa | 0 mm | - | 0 W/m² | - |
| 1777464671 | 17.22° C | 69% | 1015.5 hPa | 0 mm | - | 0 W/m² | - |
| 1777464071 | 17.22° C | 69% | 1015.5 hPa | 0 mm | - | 0 W/m² | - |
| 1777463471 | 17.22° C | 69% | 1015.5 hPa | 0 mm | - | 0 W/m² | - |
| 1777462871 | 17.22° C | 74% | 1015.6 hPa | 0 mm | - | 0 W/m² | - |
| 1777462271 | 16.67° C | 73% | 1015.6 hPa | 0 mm | - | 0 W/m² | - |
| 1777461670 | 15.56° C | 79% | 1015.6 hPa | 0 mm | - | 0 W/m² | - |
| 1777461070 | 15.56° C | 82% | 1015.8 hPa | 0 mm | - | 0 W/m² | - |
* Rain latest hour (hover to see other rain measurements)
** Current wind speed in m/s (hover to see current wind gust speed)